www.pogodaiklimat.ru

Погода и климат >> Архив погоды >> Индия >> Karwar


ПОГОДА в Karwar

  • Прогноз погоды в Karwar
  • Монитор погоды в Karwar
  • Климат города

АРХИВ ПОГОДЫ в Karwar

Время (UTC), дата Ветер
(напр.,м/с)
 
Видим.   Явления Облачность Т
(С)
Тd
(С)
f
(%)
Тe
(С)
Тes
(С)
Комфортность P
(гПа)
Po
(гПа)
Тmin
(С)
Tmax
(С)
R
(мм)
R24
(мм)
S
(см)
06 8.08 З 1 10 км 9/4 300 м
[Frnb Ac trans Ci sp]
+29.6 +25.7 80 +44 +53 опасность
перегрева
1007.6 1007.1
09 8.08 ЮЗ 1 10 км 8/4 300 м
[Frnb Ac trans Ci fib]
+29.2 +25.8 82 +44 +52 опасность
перегрева
1006.6 1006.1
12 8.08 ЮЗ 2 10 км в посл. час дождь 10/4 300 м
[Frnb As trans]
+27.4 +25.7 90 +40 +41 очень
душно
1006.6 1006.1 +30.2 0.6
03 9.08 штиль 0 10 км 10/3 300 м
[St Ac trans Ci sp]
+27.6 +25.8 90 +41 +44 опасность
перегрева
1009.7 1009.2 +26.5 +30.2 0.6
06 9.08 З 2 10 км в посл. час дождь 10/4 300 м
[Frnb Ac trans Ci sp]
+27.0 +24.7 87 +38 +45 очень
душно
1010.7 1010.2 9
09 9.08 З 2 10 км 8/4 600 м
[St Ac trans Ci sp]
+30.0 +27.5 86 +48 +56 опасность
перегрева
1009.6 1009.1 9
12 9.08 ЮЗ 1 10 км 8/4 600 м
[St Ac trans Ci sp]
+29.6 +26.5 83 +45 +46 опасность
перегрева
1009.7 1009.2 +30.2 9
03 10.08 ЮЗ 1 10 км в посл. час дождь 8/4 600 м
[St Ac trans Ci sp]
+28.0 +26.0 89 +42 +45 опасность
перегрева
1011.6 1011.1 +24.9 +30.2 11
06 10.08 З 1 10 км {дождь} 9/4 600 м
[St Ac trans Ci sp]
+29.8 +26.5 83 +46 +55 опасность
перегрева
1001.8 1011.3
09 10.08 ЮЗ 1 10 км {дождь} 8/4 300 м
[Frnb Ac trans Ci sp]
+28.8 +26.3 86 +44 +52 опасность
перегрева
1010.8 1010.3 2
12 10.08 ЮЗ 1 10 км {дождь} 6/4 600 м
[St Ac trans Ci sp]
+28.0 +26.0 89 +42 +43 опасность
перегрева
1010.4 1009.9 +30.6 2
03 11.08 ЮЗ 1 10 км {дождь} 9/4 300 м
[Frnb Ac trans Ci sp]
+26.8 +25.1 90 +39 +41 очень
душно
1011.0 1010.5 +24.7 +30.6 13
06 11.08 З 1 10 км {дождь} 9/4 300 м
[St Ac trans Ci sp]
+27.4 +25.4 89 +40 +49 очень
душно
1011.0 1010.5
09 11.08 ЮЗ 3 4000 м слабая морось 10/4 300 м
[Frnb As op]
+30.6 +27.9 86 +51 +52 опасность
перегрева
1009.9 1009.4 0.0
12 11.08 ЮЗ 2 4000 м слабый дождь {морось} 10/4 300 м
[Frnb As op]
+25.4 +23.9 91 +35 +35 очень
душно
1009.4 1008.9 +30.6 2
03 12.08 штиль 0 10 км {дождь} 10/4 300 м
[Frnb As trans]
+26.6 +24.6 89 +38 +40 очень
душно
1009.2 1008.7 +24.1 +30.6 18
06 12.08 ЮЗ 2 10 км в посл. час дождь 10/4 300 м
[Frnb As op]
+25.6 +23.6 89 +35 +38 очень
душно
1009.2 1008.7 12
09 12.08 ЮЗ 2 4000 м слабая морось 10/4 300 м
[Frnb As op]
+27.6 +25.3 87 +40 +42 очень
душно
1007.8 1007.3 12
12 12.08 ЮЗ 1 10 км в посл. час дождь {морось} 10/5 300 м
[Frnb Ac trans Ci sp]
+25.8 +24.1 90 +36 +36 очень
душно
1007.1 1006.6 +27.8 14
03 13.08 штиль 0 10 км {дождь} 10/4 300 м
[Frnb As trans]
+26.6 +24.6 89 +38 +40 очень
душно
1009.2 1008.7 +24.1 +30.6 18
06 13.08 ЮЗ 2 4000 м в посл. час дождь 10/5 300 м
[Frnb As op]
+26.8 +24.8 89 +38 +40 очень
душно
1008.0 1007.5 4
09 13.08 ЮЗ 3 2000 м слабая морось {дождь} 10/6 200 м
[Frnb Ac As]
+26.6 +24.6 89 +38 +40 очень
душно
1007.1 1006.6 9
12 13.08 ЮЗ 3 2000 м слабая морось {дождь} 10/6 200 м
[Frnb Ac As]
+26.6 +24.9 90 +38 +38 очень
душно
1006.9 1006.4 +27.4 16
03 14.08 З 3 2000 м слабая морось {дождь} 10/6 200 м
[Frnb Ac As]
+26.6 +25.5 94 +39 +40 очень
душно
1007.5 1007.0 +24.1 +27.4 55
06 14.08 З 1 10 км {морось} 10/4 300 м
[Frnb As trans]
+28.0 +26.0 89 +42 +48 опасность
перегрева
1007.6 1007.1 0.2
09 14.08 З 1 10 км {дождь} 10/4 300 м
[Frnb As trans]
+27.6 +25.6 89 +41 +46 опасность
перегрева
1006.8 1006.3 0.6
12 14.08 З 1 10 км {дождь} 10/4 300 м
[Frnb As trans]
+27.0 +25.6 92 +40 +40 очень
душно
1006.0 1005.5 +29.4 7
03 15.08 ЮЗ 2 4000 м слабый дождь 10/5 300 м
[Frnb As op]
+26.6 +25.2 92 +38 +39 очень
душно
1007.4 1006.9 +25.3 +29.4 9

 

Местоположение метеостанции Karwar (Karnataka, Индия): широта 14.78 долгота 74.13 высота над уровнем моря 4 м.

В архиве по умолчанию представлена погода в Karwar за последнюю неделю. Архивные данные за месяц целиком и за предыдущие месяцы, начиная с января 2011 года, Вы можете получить, выбрав интересующий диапазон дат из раскрывающегося списка и нажав кнопку "Ввод!".


*Определитесь, кто Вы:
робот инопланетянин человек

Внимание! Время в таблицах - всемирное. Для получения местного времени необходимо прибавить поправку, которая в Karwar равна 5.5 ч.

Смотрите также архив погоды в соседних городах и на ближайших метеорологических станциях:

Погода в Honavar (Karnataka, Индия) (65 км)
Погода в Mormugao (Goa, Индия) (80 км)
Погода в Panjim (Goa, Индия) (85 км)
Погода в Shirali (Karnataka, Индия) (90 км)
Погода в Dharwad (Karnataka, Индия) (120 км)
Погода в Belgaum (Karnataka, Индия) (127 км)
Погода в Belgaum Airport (Karnataka, Индия) (130 км)
Погода в Vengurla (Maharashtra, Индия) (133 км)
Погода в Haveri (Karnataka, Индия) (137 км)
Погода в Agumbe Emo (Karnataka, Индия) (175 км)

Пояснения к столбцам:

Ветер - указаны скорость ветра в м/с - средняя за 10 мин, порывы в срок и между сроками (в фигурных скобках) и направление, откуда дует ветер: С - северный, СВ - северо-восточный, В - восточный, ЮВ - юго-восточный, Ю - южный, ЮЗ - юго-западный, З - западный, СЗ - северо-западный.
Видимость - горизонтальная дальность видимости в метрах или километрах. При видимости от 1 до 10 км при отсутствии осадков обычно наблюдается дымка, при ухудшении видимости до 1 км и менее - туман. В сухую погоду видимость может ухудшаться дымом, пылью или мглою.
Явления - указаны атмосферные явления, наблюдавшиеся в срок или в последний час перед сроком; фигурными скобками обозначены явления, наблюдавшиеся между сроками (за 1-3 часа до срока); квадратными скобками обозначены град или гололедные отложения с указанием их диаметра в мм.
Облачность - указаны через наклонную черту общая и нижняя облачность в баллах и высота нижней границы облаков в метрах; квадратными скобками обозначены формы облаков: Ci - перистые, Cs - перисто-слоистые, Cc - перисто-кучевые, Ac - высококучевые, As - высокослоистые, Sc - слоисто-кучевые, Ns - слоисто-дождевые, Cu - кучевые, Cb - кучево-дождевые. Подробнее классификацию облаков см. в Атласе облаков (PDF).
T - Температура воздуха - температура, измеренная на высоте 2 м над землей.
Td - Температура точки росы - температура, при понижении до которой содержащийся в воздухе водяной пар достигнет насыщения.
f - Относительная влажность воздуха - влажноcть воздуха, измеренная на высоте 2 м над землей.
Te - Эффективная температура - температура, которую ощущает одетый по сезону человек в тени. Характеристика душности погоды. При расчете учитывается влияние влажности воздуха и скорости ветра на теплоощущения человека.
Tes - Эффективная температура на солнце - температура, которую ощущает человек, с поправкой на солнечный нагрев. Характеристика знойности погоды. Зависит от высоты солнца над горизонтом, облачности и скорости ветра. Ночью, в пасмурную погоду, а также при ветре 12 м/с и более поправка равна нулю.
P - Атмосферное давление - приведенное к уровню моря атмосферное давление.
Po - Атмосферное давление - измеренное на уровне метеостанции атмосферное давление.
Tmin - Минимальная температура - минимум температуры воздуха на высоте 2 м над землей.
Tmax - Максимальная температура - максимум температуры воздуха на высоте 2 м над землей.
R - Количество осадков - Количество выпавших осадков за период времени, мм. При наведении курсора мыши на число - период времени, за который выпало указанное количество осадков.
R24 - Количество осадков - Количество выпавших осадков за 24 часа, мм.
S - Снежный покров - Высота снежного покрова, см. При наведении курсора мыши на число - состояние снежного покрова и степень покрытия местности в баллах.